Regional Weather Roundup
Issued by NWS

Current Version | Previous Version | Text Only | Print | Product List | Glossary On
Versions: 1 2 3 4 5 6 7 8 9 10 11 12 13 14 15 16 17 18 19 20 21 22 23 24 25 26 27 28 29 30 31 32 33 34 35 36 37 38 39 40 41 42 43 44 45 46 47 48 49 50
000
ASUS46 KPQR 291510
RWROR

OREGON REGIONAL WEATHER ROUNDUP
NATIONAL WEATHER SERVICE PORTLAND OR
800 AM PDT MON MAY 29 2017

NOTE: "FAIR" INDICATES FEW OR NO CLOUDS BELOW 12,000 FEET WITH
NO SIGNIFICANT WEATHER AND/OR OBSTRUCTIONS TO VISIBILITY.

ORZ001>013-291600-
NORTHWEST OREGON


CITY           SKY/WX    TMP DP  RH WIND       PRES   REMARKS
ASTORIA        CLOUDY    52  49  89 NW5       30.08F
NEWPORT        CLOUDY    52  52 100 NW5       30.11S FOG
PORTLAND       CLOUDY    55  51  86 VRB3      30.07S
VANCOUVER WA   CLOUDY    56  52  86 VRB5      30.07S
SCAPPOOSE      CLOUDY    55  50  83 N8        30.06F
HILLSBORO      CLOUDY    54  51  90 CALM      30.06F
AURORA         CLOUDY    56  51  84 CALM      30.08S
MCMINNVILLE    CLOUDY    55  50  83 CALM      30.07F
SALEM          CLOUDY    56  51  84 CALM      30.06F
CORVALLIS      CLOUDY    55  48  76 CALM      30.08S
EUGENE         CLOUDY    52  52 100 N3        30.07F FOG
$$

ORZ021-028-291600-
SOUTHWEST OREGON


CITY           SKY/WX    TMP DP  RH WIND       PRES   REMARKS
NORTH BEND     CLOUDY    54  54 100 NW3       30.10S
BROOKINGS      CLOUDY    52  50  93 CALM      30.07
ROSEBURG       CLOUDY    54  49  83 N6        30.07S
SEXTON SUMMIT  MOSUNNY   60  51  72 CALM      30.06F
MEDFORD        MOSUNNY   64  55  72 CALM      30.00F
$$

ORZ014>016-041-291600-
COLUMBIA GORGE


CITY           SKY/WX    TMP DP  RH WIND       PRES   REMARKS
TROUTDALE      CLOUDY    56  52  86 NW3       30.07S
THE DALLES     SUNNY     66  56  70 NW6       30.00F
$$

ORZ029>031-041-044-049-050-061>064-502-503-505>511-291600-
EASTERN OREGON


CITY           SKY/WX    TMP DP  RH WIND       PRES   REMARKS
REDMOND        SUNNY     66  38  35 VRB3      30.08F
BEND           SUNNY     66  41  39 CALM      30.05S
PRINEVILLE     SUNNY     64  41  42 CALM      30.10S
KLAMATH FALLS  SUNNY     59  50  72 SE5       30.10S
HERMISTON      SUNNY     67  48  50 CALM      30.00S
PENDLETON      SUNNY     67  47  48 SE5       30.02S
JOHN DAY       SUNNY     63  41  45 CALM      30.14S
MEACHAM        SUNNY     63  42  46 CALM      30.13S
LA GRANDE      SUNNY     61  45  55 CALM      30.12S
BAKER CITY     SUNNY     58  44  60 CALM      30.14S
BURNS          SUNNY     64  38  38 CALM      30.15S
ROME             N/A     63  36  36 NE5       30.13F
ONTARIO        SUNNY     61  43  51 CALM      30.12R
$$



USA.gov is the U.S. government's official web portal to all federal, state and local government web resources and services.